Regional Weather Roundup
Issued by NWS

Home | Current Version | Previous Version | Graphics & Text | Print | Product List | Glossary On
Versions: 1 2 3 4 5 6 7 8 9 10 11 12 13 14 15 16 17 18 19 20 21 22 23 24 25 26 27 28 29 30 31 32 33 34 35 36 37 38 39 40 41 42 43 44 45 46 47 48 49 50
346
ASUS43 KMKX 290121
RWRWI

WISCONSIN REGIONAL WEATHER ROUNDUP
NATIONAL WEATHER SERVICE MILWAUKEE/SULLIVAN WI
800 PM CDT TUE MAR 28 2017

NOTE: "FAIR" INDICATES FEW OR NO CLOUDS BELOW 12,000 FEET WITH NO
SIGNIFICANT WEATHER AND/OR OBSTRUCTIONS TO VISIBILITY.

WIZ001-002-006>008-014>016-023>028-290200-
NORTHWEST WISCONSIN

CITY           SKY/WX    TMP DP  RH WIND       PRES   REMARKS
SUPERIOR ARPT  PTCLDY    36  33  90 NE7       30.21R WCI  30
ASHLAND        CLEAR     33  31  92 N7        30.21R WCI  27
HAYWARD        CLEAR     50  25  37 NE9       30.17R
SIREN          CLEAR     50  20  29 CALM      30.16R
CUMBERLAND     CLEAR     46  32  57 CALM      30.16R
RICE LAKE      CLEAR     49  27  42 CALM      30.17R
CHETEK         CLEAR     47  29  50 CALM      30.16R
LADYSMITH      CLEAR     49  30  48 CALM      30.17R
EAU CLAIRE     CLEAR     53  28  38 E6        30.16R
MENOMONIE      CLEAR     52  31  44 CALM      30.16R
NEW RICHMOND   CLEAR     52  28  39 CALM      30.16R
OSCEOLA        CLEAR     52  30  43 CALM      30.19R
$$

WIZ003>005-009-010-017-018-290200-
NORTH CENTRAL WISCONSIN

CITY           SKY/WX    TMP DP  RH WIND       PRES   REMARKS
MANITOWISH WTR CLEAR     45  28  51 NE3       30.18R
ARBOR VITAE    CLEAR     52  31  45 NE6       30.17R
WOODRUFF       CLEAR     52  31  45 NE6       30.17R
RHINELANDER    CLEAR     48  23  37 NE3       30.16S
EAGLE RIVER    CLEAR     41  26  56 N7        30.17R
LAND O LAKES   CLEAR     46  27  46 NE3       30.20R
PHILLIPS       CLEAR     47  23  38 NE3       30.15R
TOMAHAWK       CLEAR     42  29  59 CALM      30.16S
MEDFORD        CLEAR     46  33  62 CALM      30.16S
MERRILL        CLEAR     46  28  50 CALM      30.16F
$$

WIZ029-030-035-036-043>047-290200-
CENTRAL WISCONSIN

CITY           SKY/WX    TMP DP  RH WIND       PRES   REMARKS
WAUSAU         CLEAR     50  27  40 S5        30.15R
MOSINEE        CLEAR     52  27  37 VRB6      30.17R
MARSHFIELD     CLEAR     49  35  58 CALM      30.16R
STEVENS POINT  CLEAR     47  31  51 SE6       30.18S
WAUPACA        CLEAR     48  30  49 E6        30.20S
WAUTOMA        CLEAR     50  30  46 E3        30.20R
WISC RAPIDS    CLEAR     50  29  44 SE6       30.19R
CAMP DOUGLAS   PTCLDY    45  36  70 E8        30.16R
$$

WIZ011>013-019>022-031-037>040-048>050-290200-
NORTHEAST WISCONSIN

CITY           SKY/WX    TMP DP  RH WIND       PRES   REMARKS
ANTIGO         CLEAR     44  34  68 SE9       30.17S
SHAWANO        CLEAR     46  30  53 CALM      30.20S
OCONTO         CLEAR     37  34  89 CALM      30.21R
STURGEON BAY   CLEAR     35  33  92 CALM      30.19R
GREEN BAY      CLEAR     42  37  82 E5        30.21R
MANITOWOC      CLEAR     36  34  92 NE5       30.23R WCI  32
APPLETON       PTCLDY    46  28  49 NE7       30.18R
CLINTONVILLE   CLEAR     45  28  53 CALM      30.20R
OSHKOSH        CLEAR     46  36  68 NE6       30.19R
$$

WIZ032>034-041-042-053>061-290200-
SOUTHWEST WISCONSIN

CITY           SKY/WX    TMP DP  RH WIND       PRES   REMARKS
LA CROSSE      CLEAR     52  39  61 CALM      30.15R
SPARTA         CLEAR     49  35  57 CALM      30.17R
VIROQUA        CLEAR     49  35  59 CALM      30.15R
BOSCOBEL       CLEAR     50  38  63 CALM      30.15R
PRAIRIE DU CHI CLEAR     51  38  61 CALM      30.14S
PLATTEVILLE    CLEAR     47  42  81 CALM      30.16R
$$

WIZ056-057-062-063-064-067-068-290200-
SOUTH CENTRAL WISCONSIN

CITY           SKY/WX    TMP DP  RH WIND       PRES   REMARKS
REEDSBURG      CLEAR     51  34  51 E3        30.16R
BARABOO/DELLS  CLEAR     49  32  52 E5        30.17R
LONE ROCK      CLEAR     49  38  65 NE6       30.16R
MINERAL POINT  CLEAR     52  37  58 E3        30.14S
MADISON        CLEAR     48  37  65 NE7       30.16R
MIDDLETON      CLEAR     50  39  64 E5        30.17R
WATERTOWN      CLEAR     43  39  88 E6        30.17R
MONROE         CLEAR     50  37  62 NE6       30.14R
JANESVILLE     PTCLDY    48  37  66 E13       30.17R
$$

WIZ051-052-058>065-066-070>072-290200-
SOUTHEAST WISCONSIN

CITY           SKY/WX    TMP DP  RH WIND       PRES   REMARKS
MILWAUKEE      FOG       35  33  92 NE10      30.21R VSB 1/4 WCI  27
WAUKESHA       MOCLDY    34  32  93 NE7       30.20R WCI  28
MILWAUKEE/TIMM FOG       34  34 100 NE6       30.22R VSB 1/2 WCI  29
RACINE         FOG       35  33  92 N7        30.22R VSB 1/4 WCI  29
KENOSHA        FOG       35  34  96 NE5       30.20R VSB 1/2 WCI  31
FOND DU LAC    CLEAR     45  32  60 NE5       30.19R
SHEBOYGAN      FOG       34  33  96 NE5       30.21R VSB 1/4 WCI  30
WEST BEND      PTCLDY    36  36 100 E5        30.20S FOG     WCI  32
JUNEAU         CLEAR     47  37  67 E6        30.19R
$$

LSZ147-162-290200-
LAKE SUPERIOR

STATION/POSITION TIME  TEMP    WIND        PRES    WAVE
                       AIR SEA DIR/SP/G            HT/PER
                 (UTC) (F)     (DEG/KT/KT) (MB)    (FT/S)
DEVILS ISLAND    0100   36      80/ 11/ 12 1024.1R
PORT WING        0030   37      10/ 13/ 15 1022.0R
SAXON HARBOR     0040   36     240/  3/  5 1022.0R
$$

LMZ867-665-643>646-290200-
LAKE MICHIGAN

STATION/POSITION TIME  TEMP    WIND        PRES    WAVE
                       AIR SEA DIR/SP/G            HT/PER
                 (UTC) (F)     (DEG/KT/KT) (MB)    (FT/S)
CHAMBERS ISLAND  0030   32      CALM  /  1 1022.7R
NORTHPORT PIER   0040   32        CALM     1022.7S
SISTER BAY       0006   38        CALM       N/A
KEWAUNEE LAKESHO 0054   31      20/  2/  3 1022.9R
SHEBOYGAN LAKESH 0100   33      10/  8/  9 1023.5R
PORT WASHINGTON  0030   35      60/  7/  8 1024.0R
MILWAUKEE LAKESH 0100   35      20/ 11/ 12   N/A
KENOSHA   LAKESH 0100   35     360/  8/ 11 1022.7
$$

TC  - TEMPERATURE IN CELSIUS
VSB - VISIBILITY IN STATUTE MILES
WCI - WIND CHILL INDEX
HX  - HEAT INDEX





USA.gov is the U.S. government's official web portal to all federal, state and local government web resources and services.